Torna al catalogo

STARLINK-35708

AttivoComunicazioniVLEO
NORAD 66277·PAYLOAD·🇺🇸 United States

Lanciato Oct 31, 2025 da Vandenberg Space Force Base

Loading…

Prossimi Passaggi (prossime 24 ore)

TLE

AggiornatoSource: CelesTrak SupGP

Epoca: Sep 14, 2026, 14:27 UTC

1 66277C 25247N   26257.60256944 -.00074349  00000+0 -21969-2 0  2570
2 66277  53.1599  29.6238 0001029  91.6490  74.5956 15.34424724    16

Traccia STARLINK-35708 in tempo reale con AllMySat

Download on the App Store